www.pogodaiklimat.ru
ПОГОДА на Базе ВВС Марч
Время
и дата
07:55 19.07
08:55 19.07
09:55 19.07
10:55 19.07
11:55 19.07
12:55 19.07
13:55 19.07
14:55 19.07
15:55 19.07
16:55 19.07
17:55 19.07
18:55 19.07
19:55 19.07
20:55 19.07
21:55 19.07
22:55 19.07
23:55 19.07
00:55 20.07
01:55 20.07
02:55 20.07
03:55 20.07
04:55 20.07
05:55 20.07
06:55 20.07
07:55 20.07
08:55 20.07
09:55 20.07
10:55 20.07
11:55 20.07
12:55 20.07
13:55 20.07
14:55 20.07
15:55 20.07
16:55 20.07
17:55 20.07
18:55 20.07
19:55 20.07
20:55 20.07
21:55 20.07
22:55 20.07
23:55 20.07
00:55 21.07
01:55 21.07
02:55 21.07
03:55 21.07
04:55 21.07
05:55 21.07
06:55 21.07
Ветер
(напр.,м/с)
Видим. Явления Облачность Т
(С)
Тd
(С)
f
(%)
Тe
(С)
Тes
(С)
Комфортность P
(гПа)
Po
(гПа)
Тmin
(С)
Tmax
(С)
R
(мм)
R24
(мм)
S
(см)
штиль 0 16 км ясно +27.1 +16.7 53 +31 +36 душно 1015.0 961.2
штиль 0 16 км ясно +31.5 +11.8 30 +32 +43 жарко 1014.9 961.2
штиль 0 16 км ясно +34.1 +10.6 24 +33 +51 опасность
солнечного
удара
1014.5 960.9 +19.0 +34.8
СЗ 4 16 км ясно +36.5 +8.3 18 +35 +46 очень
жарко
1014.2 960.5
СЗ 6 16 км ясно +37.2 +9.7 19 +36 +44 очень
жарко
1013.8 960.2
З 5 16 км 2/0 6300 m
[Ci]
+37.7 +10.1 19 +36 +47 очень
жарко
1013.4 959.9
СЗ 8 16 км ясно +38.1 +6.9 15 +36 +39 очень
жарко
1012.8 959.3
СЗ 7 16 км ясно +38.0 -0.4 9 +34 +39 очень
жарко
1012.5 958.9
З 6 16 км ясно +36.7 +0.1 10 +33 +38 жарко 1012.2 958.6 +33.9 +38.6
СЗ 6 16 км ясно +35.6 +1.8 12 +32 +35 жарко 1012.2 958.6
СЗ 5 16 км ясно +33.8 +4.4 16 +31 +33 жарко 1012.2 958.6
СЗ 5 16 км ясно +30.8 +6.6 22 +29 +30 жарко 1012.9 959.3
С 5 16 км ясно +28.2 +13.7 41 +30 +30 жарко 1013.6 959.9
З 2 16 км ясно +26.3 +14.4 48 +29 +29 жарко 1013.8 960.2
З 2 16 км ясно +24.5 +13.7 51 +27 +27 жарко 1013.8 960.2 +24.5 +36.9
штиль 0 16 км ясно +22.3 +12.5 54 +25 +25 комфорт 1013.5 959.9
СВ 2 16 км ясно +22.9 +12.2 51 +26 +26 жарко 1013.4 959.9
штиль 0 16 км ясно +22.8 +12.4 52 +26 +26 жарко 1013.1 959.6
штиль 0 16 км ясно +22.9 +12.5 52 +26 +26 жарко 1012.7 959.3
штиль 0 16 км ясно +20.2 +12.7 62 +22 +22 комфорт 1012.5 958.9
штиль 0 16 км ясно +20.1 +12.3 61 +22 +22 комфорт 1012.5 958.9 +19.3 +25.4
штиль 0 16 км ясно +18.8 +11.8 64 +19 +19 1013.0 959.3
штиль 0 16 км ясно +24.2 +12.2 47 +26 +26 жарко 1013.1 959.6
штиль 0 16 км ясно +27.0 +10.2 35 +28 +29 жарко 1013.5 959.9
штиль 0 16 км ясно +31.7 +8.0 23 +31 +36 жарко 1013.8 960.2
штиль 0 16 км ясно +33.8 +6.1 18 +32 +43 жарко 1013.8 960.2
З 3 16 км ясно +36.2 +4.4 14 +33 +44 жарко 1013.4 959.9 +18.6 +36.2
штиль 0 16 км 5/0 4200 m
[Ac]
+37.2 +1.8 11 +34 +49 очень
жарко
1013.1 959.6
СЗ 4 16 км ясно +38.6 +5.2 13 +36 +49 очень
жарко
1012.7 959.3
СЗ 4 16 км ясно +39.4 +3.5 11 +36 +50 очень
жарко
1012.0 958.6
СЗ 5 16 км ясно +39.8 +8.3 15 +38 +48 очень
жарко
1011.3 958.0
СЗ 6 16 км ясно +39.1 +8.7 16 +37 +44 очень
жарко
1010.7 957.3
СЗ 5 16 км ясно +37.9 +5.8 14 +35 +41 очень
жарко
1010.4 957.0 +35.7 +40.3
СЗ 6 16 км ясно +36.1 +5.3 15 +33 +36 жарко 1010.6 957.0
СЗ 5 16 км ясно +33.8 +6.9 19 +32 +33 жарко 1010.8 957.3
СЗ 6 16 км ясно +31.3 +8.9 25 +30 +31 жарко 1011.1 957.7
СЗ 4 16 км ясно +29.0 +10.1 31 +29 +29 жарко 1011.4 958.0
СЗ 2 16 км ясно +27.2 +10.8 36 +28 +28 жарко 1012.0 958.6
штиль 0 16 км ясно +26.0 +10.6 38 +27 +27 жарко 1012.0 958.6 +26.0 +37.8
З 2 16 км ясно +26.1 +11.0 39 +27 +27 жарко 1011.9 958.6
штиль 0 16 км ясно +23.2 +10.3 44 +25 +25 комфорт 1011.6 958.3
штиль 0 16 км ясно +22.8 +9.9 44 +25 +25 комфорт 1011.3 958.0
штиль 0 16 км ясно +22.2 +9.7 45 +24 +24 комфорт 1011.0 957.7
СЗ 2 16 км 5/0 6000 m
[Ac]
+23.7 +10.7 44 +25 +25 комфорт 1010.5 957.3
штиль 0 16 км 5/0 6300 m
[Ci]
+23.9 +10.2 42 +25 +25 комфорт 1010.6 957.3 +21.7 +26.2
штиль 0 16 км 5/0 4500 m
[Ac]
+23.2 +9.9 43 +25 +25 комфорт 1010.7 957.3
штиль 0 16 км 2/0 6000 m
[Ac]
+25.0 +10.1 39 +26 +26 жарко 1011.1 957.7
штиль 0 16 км ясно +26.9 +9.2 33 +27 +29 жарко 1011.8 958.3
Местоположение метеостанции March Air Force Base: широта 33.9000 долгота -117.2500 высота над уровнем моря 469 м.
В архиве по умолчанию представлена погода на Базе ВВС Марч за последние 1-2 суток. Обновление информации о фактической погоде в базе происходит ежечасно! Архивные данные за месяц целиком и за предыдущие месяцы Вы можете получить, выбрав интересующий диапазон дат из раскрывающегося списка и нажав кнопку "Ввод!".
Внимание! Архив погоды МЕТАР в базе сайта по станциям, не включенным в климатический монитор, хранится не более 60 дней. Нет смысла пытаться выбрать более раннюю дату.
*Определитесь, кто Вы:
Внимание! Время в таблицах - местное (без учета летнего времени). Для получения всемирного времени необходимо вычесть поправку, которая равна -8 ч.
Смотрите также архив погоды в соседних городах и на ближайших метеорологических станциях:
Партнеры нашего сайта:      
Пояснения к столбцам:
  • Ветер - указаны скорость ветра в м/с - средняя за 10 мин, порывы в срок и между сроками (в фигурных скобках) и направление, откуда дует ветер: С - северный,
  • СВ - северо-восточный, В - восточный, ЮВ - юго-восточный, Ю - южный, ЮЗ - юго-западный, З - западный, СЗ - северо-западный.
  • Видимость - горизонтальная дальность видимости в метрах или километрах. При видимости от 1 до 10 км при отсутствии осадков обычно наблюдается дымка, при ухудшении видимости до 1 км и менее - туман. В сухую погоду видимость может ухудшаться дымом, пылью или мглою.
  • Явления - указаны атмосферные явления, наблюдавшиеся в срок или в последний час перед сроком; фигурными скобками обозначены явления, наблюдавшиеся между сроками (за 1-3 часа до срока); квадратными скобками обозначены град или гололедные отложения с указанием их диаметра в мм.
  • Облачность - указаны через наклонную черту общая и нижняя облачность в баллах и высота нижней границы облаков в метрах; квадратными скобками обозначены формы облаков: Ci - перистые, Cs - перисто-слоистые, Cc - перисто-кучевые, Ac - высококучевые, As - высокослоистые, Sc - слоисто-кучевые, Ns - слоисто-дождевые, Cu - кучевые, Cb - кучево-дождевые. Подробнее классификацию облаков см. в Атласе облаков (PDF).
  • T - Температура воздуха - температура, измеренная на высоте 2 м над землей.
  • Td - Температура точки росы - температура, при понижении до которой содержащийся в воздухе водяной пар достигнет насыщения.
  • f - Относительная влажность воздуха - влажноcть воздуха, измеренная на высоте 2 м над землей.
  • Te - Эффективная температура - температура, которую ощущает одетый по сезону человек в тени. Характеристика душности погоды. При расчете учитывается влияние влажности воздуха и скорости ветра на теплоощущения человека.
  • Tes - Эффективная температура на солнце - температура, которую ощущает человек, с поправкой на солнечный нагрев. Характеристика знойности погоды. Зависит от высоты солнца над горизонтом, облачности и скорости ветра. Ночью, в пасмурную погоду, а также при ветре 12 м/с и более поправка равна нулю.
  • P - Атмосферное давление - приведенное к уровню моря атмосферное давление.
  • Po - Атмосферное давление - измеренное на уровне метеостанции атмосферное давление.
  • Tmin - Минимальная температура - минимум температуры воздуха на высоте 2 м над землей.
  • Tmax - Максимальная температура - максимум температуры воздуха на высоте 2 м над землей.
  • R - Количество осадков - Количество выпавших осадков за период времени, мм. При наведении курсора мыши на число - период времени, за который выпало указанное количество осадков.
  • R24 - Количество осадков - Количество выпавших осадков за 24 часа, мм.
  • S - Снежный покров - Высота снежного покрова, см. При наведении курсора мыши на число - состояние снежного покрова и степень покрытия местности в баллах.